Regional Weather Roundup
Issued by NWS Sterling, VA

Home | Current Version | Previous Version | Text Only | Print | Product List | Glossary On
Versions: 1 2 3 4 5 6 7 8 9 10 11 12 13 14 15 16 17 18 19 20 21 22 23 24 25 26 27 28 29 30 31 32 33 34 35 36 37 38 39 40 41 42 43 44 45 46 47 48 49 50
000
ASUS41 KLWX 311510
RWRLWX

REGIONAL WEATHER ROUNDUP
NATIONAL WEATHER SERVICE BALTIMORE MD/WASHINGTON DC
1000 AM EST SAT JAN 31 2015

Note: "FAIR" indicates few or no clouds below 12,000 feet
with no significant weather and/or obstructions to visibility.
 TC=TEMPERATURE CELSIUS

 * =Non NWS site. Station does not report precipitation (e.g. rain,
    snow, etc.), thunder, or fog.

DCZ001-MDZ009-015-VAZ040>042-051-053>054-311600-
WASHINGTON METRO

CITY           SKY/WX    TMP DP  RH WIND       PRES   REMARKS
WASHINGTON NAT SUNNY     27   1  32 NW15G24   30.36R WCI  15
DULLES         SUNNY     22   2  42 NW15      30.35R WCI   9
ANDREWS AFB    SUNNY     24   1  37 NW18      30.32R WCI   9
FT BELVOIR     SUNNY     24   0  35 NW14G20   30.36R WCI  12
QUANTICO       SUNNY     27   1  32 N10G25    30.38R WCI  17
COLLEGE PARK*  SUNNY     25   3  39 NW14G22   30.34R WCI  13
LEESBURG*      SUNNY     23   9  54 N13G21    30.35R WCI  11
MANASSAS*      SUNNY     25   7  46 N16G24    30.36R WCI  12
GAITHERSBURG*  SUNNY     19   3  49 NW12G20   30.35R WCI   7

$$

MDZ006>007-011-014-311600-
BALTIMORE METRO

CITY           SKY/WX    TMP DP  RH WIND       PRES   REMARKS
BWI AIRPORT    SUNNY     23   3  42 NW13G25   30.32R WCI  11
MD SCIENCE CTR   N/A     22   2  42 MISG      30.33R
MARTIN STATE   SUNNY     25   7  46 NW17G24   30.33S WCI  11
ANNAPOLIS      SUNNY     23   7  50 NW13      30.32S WCI  11
FORT MEADE*    SUNNY     23   7  50 W12       30.35R WCI  12

$$

MDZ012-015-019>023-311600-
MARYLAND EASTERN SHORE

CITY           SKY/WX    TMP DP  RH WIND       PRES   REMARKS
OCEAN CITY     SUNNY     24   2  38 N18G30    30.27R WCI  10
SALISBURY      SUNNY     27   6  41 NW21G29   30.28R WCI  13
BAY BRIDGE AP*   N/A     25   5  42 NW14G21   30.32S WCI  13
CAMBRIDGE*     SUNNY     27   9  46 NW13G23   30.31R WCI  16
EASTON*        SUNNY     27  10  50 NW20      30.34R WCI  13

$$

MDZ017>025-311600-
SOUTHERN MARYLAND

CITY           SKY/WX    TMP DP  RH WIND       PRES   REMARKS
PATUXENT RIVER SUNNY     25   4  40 NW18      30.32R WCI  11
ST INIGOES     SUNNY     26   2  35 NW20G25   30.32S WCI  12
LEONARDTOWN*   SUNNY     27   0  31 NW9G18    30.33S WCI  17

$$

MDZ003>005-311600-
NORTH CENTRAL MARYLAND

CITY           SKY/WX    TMP DP  RH WIND       PRES   REMARKS
FREDERICK*     SUNNY     25   0  33 NW13      30.37R WCI  13
HAGERSTOWN APT SUNNY     18   3  52 NW9       30.32S WCI   7
WESTMINSTER*   SUNNY     18   3  53 NW13G22   30.27R WCI   4

$$

MDZ501>502-311600-
WESTERN MARYLAND

CITY           SKY/WX    TMP DP  RH WIND       PRES   REMARKS
OAKLAND*       PTSUNNY   10 N/A N/A W12G20    30.17S WCI  -4
CUMBERLAND*    SUNNY     23   7  50 W3        30.38S

$$

VAZ025>031-311600-
SHENANDOAH VALLEY

CITY           SKY/WX    TMP DP  RH WIND       PRES   REMARKS
WINCHESTER*    SUNNY     23   5  46 NW14      30.33R WCI  11
FRONT ROYAL*   FAIR      25   3  39 NW3       30.31R
LURAY*         FAIR      30   5  34 SE3       30.30S
NEW MARKET*    FAIR      24   4  41 NE3       30.30R
STAUNTON*      SUNNY     24   6  45 CALM      30.30S
WAYNESBORO*    FAIR      26  -3  29 W5        30.26R

$$

WVZ021-048>050-054>055-311600-
EASTERN WEST VIRGINIA PANHANDLE

CITY           SKY/WX    TMP DP  RH WIND       PRES   REMARKS
MARTINSBURG    SUNNY     21   3  45 NW14      30.34S WCI   8
PETERSBURG*    SUNNY     22   3  44 CALM      30.33S

$$

VAZ036>039-050-311600-
CENTRAL FOOTHILLS

CITY           SKY/WX    TMP DP  RH WIND       PRES   REMARKS
CHARLOTTESVILL SUNNY     28   1  31 S7        30.31R
CULPEPER*      SUNNY     27   1  33 NE6       30.34R
ORANGE*        SUNNY     28   7  40 CALM      30.34S
GORDONSVILLE*  FAIR      25   7  47 CALM      30.33R
WARRENTON*     FAIR      29   9  43 N6        30.33R

$$

VAZ055>057-311600-
NORTH AND CENTRAL PIEDMONT

CITY           SKY/WX    TMP DP  RH WIND       PRES   REMARKS
FREDERICKSBRG* SUNNY     28   2  33 N8        30.36R WCI  20
STAFFORD*      SUNNY     27  -1  29 NW7G17    30.39R

$$

NCZ024-NYZ072-PAZ021-071-VAZ022-071-311600-
OTHER REGIONAL OBSERVATIONS

CITY           SKY/WX    TMP DP  RH WIND       PRES   REMARKS
NEW YORK CITY  SUNNY     15  -4  42 NW13G29   30.14R WCI   1
PHILADELPHIA   SUNNY     19  -3  38 NW18G29   30.28R WCI   4
PITTSBURGH     SUNNY     15   7  70 SW9       30.33F WCI   3
ROANOKE        MOSUNNY   29   7  39 SW5       30.32R
RICHMOND       SUNNY     28   5  37 NW6       30.36R
RALEIGH        PTSUNNY   33   6  32 NW7       30.37R

$$

ANZ530>537-311600-
MARINE OBSERVATIONS

STATION/POSITION TIME  TEMP    WIND        PRES
                       AIR SEA DIR/SP/G
                 (UTC) (F)     (DEG/KT/KT) (MB)
THOMAS PT LIGHT  1500   22 34  310/ 17/ 20 1027.7R
BALT KEY BRIDGE  1500   21     290/ 16/ 18 1026.6S
COVE POINT       1500   22     340/ 16/ 20 1026.5R
LEWISETTA        1500   25 34  320/ 15/ 18 1027.1S
SOLOMONS ISLAND  1500      36                N/A
PINEY POINT      1500          330/ 23/ 27   N/A

$$




USA.gov is the U.S. government's official web portal to all federal, state and local government web resources and services.